Simultaneous Nadir Overpasses (SNOs) Predictions

Prediction of SNOs between LANDSAT-8 and NPP Satellite Orbit:

Table of predicted SNOs for the next 14.0 days since TLE Epoch: 3/1/2015
Index Date (LANDSAT-8) Time (LANDSAT-8) Lat,Lon (LANDSAT-8) SZA (LANDSAT-8 ) Date (NPP) Time (NPP) Lat,Lon (NPP) SZA (NPP ) Distance(km) Time Diff (sec)
1 03/03/2015 10:34:15 70.74, 18.63 77.59 03/03/2015 10:33:26 70.73, 18.67 77.59 1.92 49
2 03/03/2015 11:23:45 -70.63,-173.90 102.53 03/03/2015 11:24:08 -70.63,-173.86 102.53 1.55 23
3 03/06/2015 02:50:43 70.69, 134.44 76.51 03/06/2015 02:50:18 70.68, 134.51 76.50 2.97 25
4 03/06/2015 03:40:13 -70.58, -58.09 103.61 03/06/2015 03:41:00 -70.58, -58.01 103.62 2.92 47
5 03/08/2015 18:17:42 -70.84, 82.90 104.39 03/08/2015 18:16:29 -70.89, 82.62 104.31 11.81 73
6 03/08/2015 19:07:10 70.67,-109.71 75.45 03/08/2015 19:07:11 70.69,-109.74 75.47 2.49 1
7 03/08/2015 19:56:40 -70.57, 57.77 104.67 03/08/2015 19:57:53 -70.59, 57.75 104.66 2.30 73
8 03/11/2015 10:34:09 -70.75,-161.35 105.52 03/11/2015 10:33:18 -70.75,-161.37 105.52 0.91 51
9 03/11/2015 11:23:36 70.63, 6.12 74.36 03/11/2015 11:24:02 70.66, 6.09 74.38 2.85 26
10 03/11/2015 12:13:22 -69.66, 172.36 106.59 03/11/2015 12:14:27 -69.65, 174.94 106.69 99.94 65
11 03/14/2015 02:50:36 -70.69, -45.55 106.64 03/14/2015 02:50:10 -70.72, -45.55 106.61 2.73 26
12 03/14/2015 03:40:03 70.57, 121.92 73.24 03/14/2015 03:40:53 70.57, 121.99 73.23 2.71 50
